sat.trackr.live / text

‹ back to catalog

STARLINK-2647

NORAD 48658 · 2021-044W

PAYLOAD ACTIVE UNKNOWN

§ Identity

Operator
Country
US
Launch date
2021-05-26
Launch site
AFETR
Launch vehicle
Mass (kg)
RCS (m²)

Purposes: comms

External: N2YO · Heavens-Above · Gunter

§ Orbital elements

Epoch: 2026-09-12T16:49:38.542656Z

Period
94.01 min
Inclination
53.1611°
Eccentricity
0.0001585
Mean motion
15.31695958 rev/d
Perigee alt
469.7 km
Apogee alt
471.8 km
Semi-major
6,848.9 km
B*
5.2729e-5
RAAN
324.1745°
Arg perigee
82.0428°
Mean anomaly
278.0753°
Rev number
29,247

§ Raw data

STARLINK-26471 48658U 21044W   26255.70114054  .00001271  00000+0  52729-4 0  99932 48658  53.1611 324.1745 0001585  82.0428 278.0753 15.31695958292477

JSON: /api/v1/satellites/48658 · /tle

For live sub-satellite position, see the globe view (requires WebGL).

§ Visibility from observer

Set your observer location to see the next 7 days of passes ≥ 10°. The values pass through the URL so the page stays shareable.

No JS? Fill the form by hand. The geolocation button needs JavaScript.